Temperature
24 23 22 22 21 20 20 21 22 21 20 20 20 20 19 18 18 18 18 18 18 18 18 18 18 18 18 18 18 18 18 18 18 18 18 18 18 18 18 18 18 18 18 18 18 18 18 18 18
24 23 23 22 20 19 20 21 21 21 21 21 21 20 19 18 18 18 18 18 18 18 18 18 18 18 18 18 18 18 18 18 18 18 18 18 18 18 18 18 18 18 18 18 18 18 18 18 17
24 24 23 20 20 20 21 21 21 21 21 21 20 19 19 18 18 18 18 18 18 18 18 18 18 18 18 18 18 18 18 18 18 18 18 18 18 18 18 18 18 18 18 18 18 18 18 18 18
24 24 23 21 22 22 22 22 22 22 21 21 20 19 19 18 19 18 18 18 19 18 18 18 18 18 18 18 18 18 18 18 18 18 18 18 18 18 18 18 18 18 18 18 18 18 18 18 18
25 25 21 21 22 22 22 23 22 21 21 20 20 18 18 18 19 19 19 19 19 18 18 18 18 18 18 18 18 18 19 18 18 18 18 18 18 18 18 18 18 18 18 18 18 18 18 17 17
26 22 20 21 22 22 22 22 22 21 20 20 19 18 18 18 19 19 19 19 19 18 18 18 18 18 18 19 19 19 18 18 18 18 18 18 18 18 18 18 18 18 18 18 18 18 17 17 17
24 21 21 22 22 23 23 23 22 21 21 20 20 18 18 18 19 19 19 19 18 19 19 19 18 18 18 18 18 18 18 18 18 18 18 18 18 18 18 18 18 18 18 18 18 18 17 17 17
26 21 22 22 22 23 23 23 22 21 21 21 20 18 18 19 19 19 19 19 19 19 19 19 19 19 19 18 18 19 18 18 18 18 18 18 18 18 18 18 18 18 18 18 17 17 17 17 17
26 21 22 22 22 23 23 23 22 22 21 21 21 20 20 19 19 19 19 19 19 19 19 19 19 19 19 19 18 19 18 18 18 18 18 18 18 18 18 18 18 18 18 17 17 17 17 17 17
25 22 23 24 23 23 23 23 22 22 21 20 20 20 20 19 19 19 19 19 19 19 19 19 19 19 19 19 19 19 19 18 18 18 18 18 18 18 18 18 18 18 18 18 17 17 17 17 18
25 24 24 25 25 24 23 23 23 21 20 20 20 20 19 19 19 19 19 19 19 19 19 19 19 19 19 19 19 18 18 18 18 18 18 18 18 18 18 18 18 18 18 18 18 18 18 18 18
25 25 25 25 25 24 23 23 22 22 22 22 22 21 20 20 20 20 20 19 19 19 19 19 19 19 19 19 18 18 18 18 18 18 18 18 18 18 18 18 18 18 18 18 18 18 18 18 18
26 25 26 25 25 24 24 23 23 22 23 22 21 21 20 20 20 20 20 20 20 19 19 19 19 19 19 19 19 18 18 18 18 18 18 18 18 18 18 18 18 18 18 18 18 18 18 18 18
25 25 25 25 25 25 23 23 22 22 22 21 21 20 20 20 20 20 20 20 20 20 19 19 19 19 19 19 19 19 18 18 18 18 18 18 18 18 18 18 18 18 18 18 18 18 18 18 18
25 24 24 24 25 24 24 23 22 22 22 21 20 20 20 21 21 21 21 20 20 20 20 19 19 19 19 19 19 19 18 18 18 18 18 18 18 18 18 18 18 18 18 18 18 18 18 18 18
24 23 23 25 24 24 24 22 22 22 21 21 20 20 20 21 21 21 21 21 20 20 20 20 19 19 19 19 19 19 18 18 18 18 18 18 18 18 18 18 18 18 18 18 18 18 18 18 18
23 23 24 24 24 24 23 23 22 22 21 21 21 21 21 21 21 21 21 21 21 20 20 20 20 19 19 19 19 19 18 18 18 18 18 18 18 18 18 18 18 18 18 18 18 18 18 18 18
24 24 24 24 24 24 23 22 22 22 22 21 21 21 21 21 22 22 21 21 21 20 20 20 20 20 19 19 19 19 19 19 18 18 18 18 18 18 18 18 18 18 18 18 18 18 18 18 17
24 24 24 24 24 24 23 22 22 22 22 21 21 21 21 22 22 22 21 21 21 20 20 20 20 20 19 19 19 19 19 19 19 18 18 18 18 18 18 18 18 18 18 18 18 17 17 17 17
25 24 24 24 24 24 23 22 22 22 21 22 21 21 22 22 22 22 21 21 21 21 21 20 20 20 20 19 19 19 19 19 19 18 18 18 18 18 18 18 18 18 18 18 17 17 17 17 17
24 24 24 24 24 23 23 22 22 22 22 22 22 22 22 22 22 22 22 22 22 21 21 21 20 20 20 19 19 19 19 19 18 18 18 18 18 18 18 18 18 18 18 18 17 17 17 17 17
24 25 24 24 23 22 23 22 22 21 21 21 22 22 23 23 23 23 23 22 22 22 22 21 21 20 20 19 19 19 19 19 19 18 18 18 18 18 18 18 18 17 17 17 17 17 17 17 17
24 24 24 23 22 21 22 22 21 21 21 21 22 22 23 23 23 23 23 23 23 22 22 22 21 20 20 20 19 19 19 19 19 18 18 18 18 18 18 18 18 17 17 17 17 17 17 17 17
24 23 21 19 20 21 22 22 22 20 21 21 22 22 23 23 23 23 23 23 23 22 22 22 21 21 20 20 19 19 19 19 19 19 18 18 18 18 18 18 18 18 17 17 17 17 17 17 17
23 21 21 22 20 21 21 21 21 21 22 22 22 23 23 23 23 23 23 23 23 23 22 22 21 21 20 20 20 19 19 19 19 18 18 18 18 18 18 18 18 18 17 17 17 17 17 17 17
22 21 21 22 21 20 21 21 22 22 23 23 23 24 24 24 23 23 23 23 23 23 22 22 21 21 20 20 20 19 19 19 19 18 18 18 18 18 17 17 17 17 17 17 17 17 17 17 17
22 21 20 19 20 21 20 21 22 22 22 22 23 23 23 24 24 23 23 23 23 23 23 22 22 21 21 20 20 20 19 19 19 18 18 18 18 18 17 17 17 17 17 17 17 17 17 17 16
22 19 18 18 20 21 22 22 21 23 22 21 21 22 23 24 23 23 23 24 24 23 23 22 22 21 21 21 20 20 20 19 19 18 18 18 18 17 17 17 17 17 17 17 17 17 17 16 16
21 20 17 16 18 19 21 21 22 21 21 21 21 23 24 24 24 24 24 24 23 23 23 22 22 21 21 20 20 20 19 19 19 18 18 18 18 17 17 17 17 17 17 17 17 17 16 16 16
22 20 18 20 19 17 19 21 22 21 21 21 22 23 24 24 24 24 24 23 23 23 23 22 22 21 21 20 20 20 19 19 19 18 18 18 17 17 17 17 17 17 16 16 16 16 16 16 16
Wind_Speed
9 7 4 1 5 7 6 5 4 5 4 5 8 8 8 6 4 4 1 3 4 4 5 8 11 12 13 13 13 14 15 16 16 16 16 17 17 18 17 17 17 18 18 18 18 17 16 16 16
6 5 2 3 6 5 5 4 6 5 4 4 7 8 8 7 4 5 2 3 5 5 5 8 11 11 12 13 13 14 15 16 16 16 16 16 17 17 17 17 17 17 17 17 17 16 16 16 16
6 2 3 5 5 4 3 3 6 6 5 4 5 6 5 4 3 3 2 5 6 5 5 8 11 11 12 12 13 14 15 15 15 15 15 16 16 16 16 16 16 16 16 16 16 15 15 15 15
3 3 5 7 8 3 4 5 5 6 6 7 5 6 5 4 3 4 5 6 6 5 5 8 10 11 11 12 12 13 14 15 15 14 14 15 15 15 15 15 15 15 15 15 15 14 14 14 13
3 5 7 6 5 4 5 5 4 6 5 7 7 6 5 4 7 8 6 6 6 5 5 7 10 11 11 12 12 13 13 13 14 14 14 14 14 14 14 14 14 14 14 14 13 13 13 13 12
4 5 6 4 5 4 4 4 6 9 7 6 6 5 3 3 6 6 5 6 5 5 5 7 9 10 11 12 12 12 12 13 13 13 13 13 13 13 13 13 13 13 12 12 12 11 11 11 11
5 5 5 5 4 3 3 3 4 6 6 4 4 5 3 2 4 6 6 6 5 5 5 6 7 8 10 10 11 11 11 11 11 11 12 12 12 12 12 12 12 11 11 10 10 10 10 10 10
5 6 5 3 5 3 5 4 5 6 6 5 4 6 5 4 5 7 6 6 5 5 4 5 6 7 7 7 9 10 10 9 10 10 10 10 10 10 10 9 10 9 9 8 8 8 8 8 7
4 5 4 5 6 5 6 5 3 5 6 3 4 4 6 10 9 7 5 4 3 3 3 3 4 5 5 5 6 7 7 8 8 7 9 8 7 7 6 7 8 7 7 7 6 6 6 6 6
5 4 5 5 7 7 7 6 6 6 5 4 6 7 11 11 9 7 6 5 3 2 1 1 2 3 3 3 5 5 5 5 6 6 6 6 6 5 5 5 5 5 5 5 5 5 5 4 3
4 4 3 4 6 9 7 5 4 8 4 6 10 13 13 10 8 7 6 5 4 3 2 2 2 2 2 2 3 3 3 4 4 4 4 4 4 3 4 4 4 4 4 4 4 4 3 2 2
4 2 4 5 7 7 7 6 5 4 5 8 12 14 13 11 9 8 7 5 4 4 3 2 2 2 1 1 1 1 2 2 1 1 2 2 2 2 2 2 2 3 3 3 3 2 2 2 2
5 3 4 7 9 7 7 5 5 2 7 11 12 12 11 11 8 6 6 5 4 4 4 4 3 2 2 1 0 1 1 1 1 1 1 2 1 0 0 1 1 1 1 2 2 2 2 2 2
4 7 7 7 7 5 7 4 4 3 9 11 11 10 10 9 8 6 6 6 6 5 5 4 4 3 3 2 1 1 1 1 1 1 2 3 2 1 0 0 1 1 1 1 1 1 1 1 1
7 8 8 5 5 4 7 4 1 6 10 10 10 9 8 8 7 8 8 7 7 6 5 5 5 3 3 2 2 1 1 2 1 2 2 3 3 3 2 1 1 1 1 1 2 2 2 1 1
6 6 4 0 3 4 6 3 3 8 10 10 9 8 8 7 7 7 7 6 6 6 5 5 5 5 4 3 2 1 1 2 1 2 2 3 3 3 2 2 1 0 1 2 2 1 1 1 1
5 4 2 2 3 4 4 3 4 8 10 9 9 8 8 7 6 6 7 7 7 6 6 5 4 5 5 3 2 1 1 1 1 1 1 2 2 3 3 2 1 1 1 1 1 1 1 1 1
4 4 3 4 4 5 4 4 5 8 9 9 8 8 7 8 9 7 7 7 6 6 5 5 4 4 4 3 2 2 1 1 1 1 1 2 2 3 3 2 1 1 1 1 1 1 1 1 1
7 5 4 4 4 5 5 4 6 8 7 8 8 8 8 9 6 5 6 6 6 5 5 5 5 4 4 2 2 2 1 0 0 1 1 2 2 2 2 1 1 1 2 2 2 2 1 1 1
6 5 2 0 2 4 2 3 4 7 9 8 9 9 9 8 6 6 6 6 7 7 6 5 5 5 4 3 2 2 2 1 1 1 1 1 2 2 2 2 1 1 1 1 2 2 1 0 1
4 6 5 3 3 4 4 4 1 3 4 5 6 7 8 10 10 9 8 7 7 7 7 7 5 5 4 4 3 2 2 2 1 1 1 1 1 1 1 1 1 1 1 1 2 2 2 1 1
4 5 6 6 6 0 3 2 6 4 5 7 9 8 9 9 9 8 9 8 8 8 7 6 6 5 4 4 4 4 3 2 1 1 0 1 1 1 1 1 1 1 1 1 2 2 2 2 1
5 3 5 5 5 3 2 2 7 1 6 10 11 10 10 9 9 9 10 9 8 7 7 7 6 5 5 5 5 4 3 2 1 1 1 0 0 0 0 1 1 1 0 1 1 1 2 2 2
7 8 8 7 5 1 3 4 6 5 8 8 9 10 10 9 8 8 7 7 6 6 6 7 6 5 5 5 5 5 4 3 2 1 1 0 0 0 0 1 1 1 1 1 1 1 2 2 2
6 7 4 4 3 5 2 3 9 8 9 10 10 10 9 8 8 8 8 8 8 8 8 7 7 6 5 6 5 5 5 4 3 2 2 1 0 1 1 0 0 0 1 1 1 1 1 1 1
5 9 8 6 6 4 1 5 8 6 6 5 6 6 7 8 8 8 9 8 8 9 9 8 8 7 6 6 5 4 4 3 2 3 2 2 2 2 1 0 0 0 1 1 0 0 1 0 1
7 4 7 8 4 1 5 7 8 2 1 1 4 5 7 8 8 8 8 8 8 8 9 9 9 7 6 6 5 4 4 3 3 2 2 1 1 1 1 1 1 1 1 1 1 0 0 1 1
6 9 7 7 6 3 5 5 5 6 5 3 5 7 7 6 6 6 7 7 7 7 7 8 8 7 6 5 5 4 4 3 3 2 2 1 1 1 1 1 2 2 2 2 2 2 2 2 2
5 5 6 6 6 7 4 7 7 9 8 8 9 8 8 7 7 7 6 5 6 6 7 7 7 7 6 6 5 4 4 3 3 2 1 1 1 2 2 2 2 3 3 3 3 3 3 3 3
5 7 8 6 4 5 5 8 6 7 7 8 8 7 7 7 6 6 6 6 6 7 7 7 7 7 7 6 5 4 4 4 3 2 2 2 3 3 3 3 4 3 4 3 4 4 4 4 4
Wind_Direction
152 146 144 121 57 53 44 27 54 60 50 47 64 73 75 52 63 106 357 72 70 58 62 80 82 85 86 87 89 92 95 98 99 98 100 101 103 105 106 107 109 111 109 108 108 109 110 112 114
147 148 133 61 70 65 30 29 66 71 116 118 70 63 63 52 55 92 79 68 75 71 67 86 85 85 86 87 91 94 97 100 100 99 100 101 101 104 106 108 108 110 110 109 109 109 109 109 112
154 159 80 65 72 104 109 80 100 96 81 64 67 56 59 65 79 104 110 98 76 67 69 89 87 88 88 89 94 96 99 102 103 102 101 103 104 105 107 109 109 110 110 109 109 109 109 110 111
136 60 55 65 67 74 126 131 123 104 59 48 74 62 56 58 105 114 112 100 83 65 69 90 89 90 90 91 96 98 100 102 103 102 102 104 106 108 109 109 109 109 110 110 110 110 109 111 113
69 72 61 56 51 59 86 115 94 80 71 64 75 79 51 30 86 103 104 97 90 68 64 87 91 89 89 92 95 99 99 101 101 102 103 103 105 107 109 110 110 111 111 111 111 111 112 112 114
58 68 76 77 72 73 84 91 91 87 92 89 78 81 56 80 100 108 97 92 87 77 64 77 90 90 91 93 96 99 101 101 101 103 103 104 104 106 108 110 112 112 112 112 112 112 113 113 113
94 84 101 116 106 109 135 104 101 109 97 88 98 89 90 117 119 111 93 87 79 72 62 59 73 86 92 94 97 98 99 101 102 103 105 105 105 106 106 108 111 112 112 113 116 116 113 113 114
117 95 89 113 130 139 137 110 111 112 103 117 106 124 159 178 129 103 90 83 80 66 55 53 63 69 75 88 97 102 101 103 105 106 106 105 104 103 105 106 108 110 111 113 117 117 115 114 116
91 80 135 171 157 148 142 127 124 91 110 105 94 127 147 137 126 111 99 85 87 88 51 51 59 66 73 81 92 98 102 102 101 98 101 91 79 80 88 102 108 107 108 110 111 114 114 113 116
84 118 190 183 157 142 139 135 139 114 110 91 86 97 121 135 141 140 140 146 155 149 118 74 69 63 64 80 78 72 73 79 80 77 77 77 71 71 77 84 98 101 102 99 95 97 98 96 106
111 148 158 125 130 128 130 131 125 128 147 169 151 145 145 149 155 159 163 170 179 168 158 152 123 92 70 58 74 72 71 73 72 79 80 76 59 55 52 44 43 47 58 60 65 68 71 87 109
109 97 126 128 123 125 134 130 120 157 188 157 150 151 155 163 173 179 179 183 175 167 179 177 152 131 128 98 72 85 86 82 81 89 99 93 64 44 40 47 39 32 37 48 43 53 55 82 114
88 83 78 107 108 113 107 114 122 117 118 127 137 149 164 173 181 187 181 178 175 182 190 185 170 170 166 132 120 115 122 140 189 190 165 151 137 123 49 26 18 26 53 60 51 52 50 66 85
91 81 80 89 97 105 109 95 95 139 133 138 150 162 173 180 180 177 179 185 189 192 193 182 176 178 166 158 166 136 160 170 178 210 190 180 182 175 152 12 32 26 41 57 74 69 67 63 90
87 79 61 62 83 105 105 74 159 157 146 154 168 174 179 187 184 189 192 190 192 190 183 183 182 162 160 172 187 177 178 162 172 229 205 192 188 184 171 132 71 10 13 56 64 62 66 61 66
64 71 90 230 102 116 117 190 203 157 159 172 183 186 191 199 199 198 191 187 184 178 175 187 187 162 165 165 169 156 158 152 184 220 203 200 195 179 156 148 167 215 83 98 97 87 68 54 63
49 112 152 184 171 140 139 206 200 171 175 187 193 195 197 205 214 207 191 182 178 177 173 176 177 163 166 160 141 138 129 140 181 179 184 196 189 171 156 157 180 158 110 106 125 106 124 114 72
176 154 168 199 200 149 173 213 189 184 189 199 198 198 200 208 218 206 192 181 175 171 172 176 176 167 153 136 111 89 70 62 90 156 203 194 187 176 163 160 170 151 134 125 137 138 125 138 123
150 148 178 219 196 158 196 215 199 189 196 202 201 199 205 217 217 193 188 178 167 170 178 181 175 171 147 133 138 130 152 144 85 171 204 200 188 180 172 171 166 163 166 181 169 142 135 139 128
133 137 174 260 141 150 183 248 212 193 201 201 200 204 206 210 205 196 189 181 177 182 186 186 186 178 173 161 150 150 145 143 135 59 35 211 197 202 181 158 169 181 175 158 163 154 150 202 152
163 172 179 159 81 67 92 344 244 221 207 209 205 205 208 206 205 200 194 191 185 187 187 190 191 190 186 164 128 103 79 54 59 40 20 6 164 169 177 170 158 149 164 186 196 179 181 208 215
211 207 164 141 117 150 123 251 272 233 227 222 220 211 214 214 207 199 196 195 194 193 183 179 181 187 183 163 163 164 167 184 210 174 144 9 69 106 167 164 144 145 167 193 214 193 194 189 229
188 117 115 115 118 82 51 151 282 220 231 233 224 216 215 209 201 199 200 198 196 185 178 179 178 185 181 173 176 174 182 188 168 125 137 62 48 114 208 183 144 135 207 242 232 197 201 198 205
127 79 61 51 73 100 221 168 267 227 221 228 221 216 212 202 195 196 192 182 181 172 173 172 171 182 181 176 177 182 192 191 157 152 171 207 322 332 308 198 163 160 200 243 251 221 214 221 216
101 98 55 20 15 246 251 191 248 245 229 217 213 209 204 190 184 185 180 179 179 176 177 173 173 185 183 177 183 190 194 187 189 200 199 197 222 275 270 228 174 223 241 246 250 231 247 224 225
158 138 154 180 206 262 292 228 251 263 251 221 201 186 177 177 180 182 184 183 184 183 179 175 178 189 186 183 187 186 183 180 188 194 191 198 223 240 251 152 164 237 247 256 236 233 254 224 239
132 146 151 128 143 154 273 282 299 302 336 170 178 170 178 181 180 181 180 180 182 181 183 181 180 182 183 181 172 167 171 175 186 187 178 198 232 217 91 91 85 39 45 51 81 60 352 53 38
130 138 104 120 142 219 284 269 245 250 239 211 195 192 190 179 174 177 179 179 179 180 177 172 172 175 173 168 167 166 165 171 169 158 177 179 194 134 100 81 57 43 47 54 71 58 46 61 35
100 95 104 112 144 154 221 264 229 222 219 209 208 201 190 183 180 181 180 175 166 161 163 165 164 159 159 160 157 153 151 144 137 136 153 152 130 114 106 89 72 60 54 60 75 68 60 63 49
149 157 146 149 190 169 175 260 271 235 225 209 204 196 188 181 174 171 165 155 153 158 160 163 163 161 161 155 148 146 135 130 127 127 123 109 102 96 94 86 76 72 68 67 74 72 65 66 59
Height
1480 1480 1481 1483 1487 1501 1508 1504 1499 1501 1502 1503 1501 1502 1505 1508 1511 1517 1514 1512 1512 1511 1510 1510 1509 1509 1509 1509 1509 1509 1510 1511 1511 1512 1513 1514 1515 1516 1518 1519 1520 1522 1524 1525 1527 1529 1531 1533 1534
1481 1481 1484 1485 1498 1516 1514 1505 1503 1503 1504 1504 1504 1506 1507 1510 1511 1513 1514 1514 1514 1513 1513 1513 1512 1512 1512 1512 1512 1512 1513 1514 1515 1516 1517 1518 1519 1520 1522 1523 1524 1525 1527 1528 1530 1532 1534 1536 1537
1482 1483 1486 1490 1505 1515 1514 1506 1505 1505 1505 1505 1507 1509 1511 1514 1514 1515 1516 1516 1516 1516 1516 1516 1515 1515 1515 1515 1515 1515 1516 1517 1518 1519 1520 1521 1522 1524 1525 1526 1527 1529 1530 1532 1533 1535 1537 1539 1540
1484 1486 1489 1499 1509 1507 1506 1506 1505 1506 1507 1507 1509 1512 1515 1517 1517 1518 1518 1518 1518 1518 1518 1518 1518 1518 1517 1518 1518 1519 1520 1520 1521 1522 1524 1525 1526 1527 1528 1529 1530 1532 1533 1535 1537 1538 1540 1541 1543
1485 1488 1499 1510 1510 1507 1506 1507 1507 1507 1509 1511 1511 1516 1519 1520 1520 1520 1521 1521 1521 1521 1521 1521 1521 1521 1521 1521 1522 1522 1523 1524 1525 1526 1527 1528 1529 1530 1531 1532 1534 1535 1536 1538 1540 1541 1543 1544 1546
1487 1491 1511 1518 1513 1509 1509 1509 1509 1511 1513 1514 1515 1518 1522 1523 1523 1523 1523 1524 1524 1524 1524 1524 1524 1524 1524 1524 1525 1526 1527 1527 1528 1529 1530 1531 1532 1533 1534 1535 1537 1538 1540 1541 1543 1544 1545 1547 1548
1490 1498 1511 1514 1514 1512 1511 1511 1512 1512 1514 1516 1517 1520 1523 1524 1525 1525 1526 1526 1526 1527 1527 1527 1527 1527 1527 1528 1528 1529 1530 1531 1532 1532 1533 1534 1535 1536 1537 1538 1540 1541 1543 1544 1545 1547 1548 1549 1551
1490 1498 1510 1513 1514 1513 1511 1512 1513 1514 1516 1518 1519 1521 1524 1525 1526 1527 1528 1528 1529 1529 1529 1530 1530 1530 1530 1531 1531 1532 1533 1534 1534 1535 1536 1537 1538 1539 1540 1541 1543 1544 1545 1547 1548 1549 1550 1552 1553
1491 1504 1514 1512 1512 1511 1510 1512 1515 1516 1517 1519 1520 1521 1524 1526 1527 1528 1529 1530 1531 1531 1532 1532 1533 1533 1533 1534 1534 1535 1536 1536 1537 1538 1539 1540 1541 1542 1543 1544 1546 1547 1548 1549 1550 1551 1553 1554 1555
1493 1508 1507 1503 1504 1506 1510 1512 1515 1517 1519 1520 1522 1524 1525 1527 1528 1529 1531 1532 1533 1533 1534 1535 1535 1536 1536 1536 1537 1537 1538 1539 1540 1541 1542 1543 1544 1545 1546 1547 1548 1549 1550 1551 1552 1553 1554 1555 1556
1494 1501 1500 1501 1502 1506 1510 1513 1515 1517 1520 1520 1520 1523 1526 1528 1530 1531 1532 1534 1535 1536 1536 1537 1538 1538 1539 1539 1539 1539 1540 1541 1542 1543 1545 1545 1546 1547 1548 1549 1550 1551 1552 1553 1554 1555 1556 1556 1557
1495 1497 1498 1501 1504 1507 1511 1514 1516 1517 1518 1519 1521 1523 1526 1528 1530 1532 1534 1535 1537 1538 1539 1539 1540 1540 1541 1541 1541 1541 1542 1543 1544 1545 1546 1547 1548 1549 1550 1551 1552 1553 1554 1554 1555 1556 1557 1557 1558
1496 1499 1501 1503 1505 1509 1512 1515 1517 1519 1519 1521 1524 1526 1527 1529 1531 1534 1536 1537 1538 1539 1540 1541 1541 1542 1543 1543 1543 1544 1544 1545 1546 1547 1548 1549 1550 1551 1552 1553 1553 1554 1555 1555 1556 1557 1557 1558 1559
1499 1501 1504 1507 1509 1512 1515 1518 1519 1521 1521 1523 1525 1527 1529 1531 1533 1534 1536 1537 1539 1540 1541 1542 1543 1544 1544 1545 1545 1546 1546 1547 1548 1549 1550 1550 1551 1552 1553 1554 1554 1555 1556 1556 1557 1557 1557 1558 1559
1500 1505 1509 1511 1511 1514 1517 1522 1521 1521 1523 1525 1527 1528 1530 1532 1533 1535 1536 1538 1539 1541 1542 1543 1544 1545 1545 1546 1547 1548 1548 1549 1549 1550 1551 1551 1552 1553 1554 1554 1554 1556 1556 1557 1557 1557 1557 1558 1558
1504 1513 1520 1515 1514 1516 1521 1529 1522 1522 1524 1526 1527 1529 1531 1532 1533 1535 1537 1538 1540 1541 1543 1544 1545 1546 1546 1547 1548 1549 1549 1550 1551 1551 1552 1552 1553 1553 1554 1554 1554 1555 1556 1556 1557 1557 1557 1557 1557
1516 1524 1524 1519 1514 1516 1520 1525 1521 1522 1524 1525 1527 1529 1530 1532 1533 1535 1537 1538 1540 1542 1543 1544 1546 1546 1547 1548 1549 1550 1551 1551 1552 1552 1552 1553 1553 1553 1553 1554 1554 1555 1555 1556 1556 1556 1557 1557 1557
1522 1523 1523 1522 1515 1516 1521 1522 1520 1521 1523 1524 1526 1528 1530 1531 1532 1534 1536 1538 1540 1542 1543 1545 1546 1547 1548 1549 1550 1550 1551 1552 1552 1553 1553 1553 1553 1553 1553 1553 1554 1554 1555 1555 1556 1556 1556 1556 1556
1510 1517 1521 1518 1512 1516 1521 1521 1520 1520 1522 1523 1524 1526 1528 1530 1532 1534 1536 1538 1540 1541 1543 1544 1546 1547 1548 1549 1550 1551 1551 1552 1553 1553 1553 1553 1553 1553 1553 1553 1554 1554 1554 1555 1555 1555 1555 1555 1555
1509 1516 1519 1515 1512 1516 1521 1522 1519 1519 1520 1520 1522 1524 1526 1528 1530 1533 1535 1537 1538 1540 1542 1544 1545 1547 1548 1549 1550 1551 1552 1552 1553 1553 1553 1553 1553 1553 1553 1552 1553 1553 1554 1554 1554 1554 1554 1554 1554
1511 1514 1516 1517 1516 1517 1522 1527 1522 1519 1519 1521 1522 1523 1524 1526 1527 1530 1533 1535 1537 1539 1540 1542 1545 1546 1547 1549 1549 1550 1551 1551 1552 1552 1552 1553 1552 1552 1552 1552 1552 1552 1553 1553 1553 1553 1553 1553 1553
1514 1506 1509 1514 1524 1532 1527 1543 1527 1521 1520 1519 1519 1520 1521 1523 1525 1528 1530 1532 1534 1537 1539 1541 1543 1545 1546 1548 1548 1549 1549 1550 1551 1552 1552 1552 1552 1552 1552 1552 1552 1552 1551 1551 1552 1551 1551 1551 1551
1505 1503 1509 1515 1525 1534 1532 1541 1533 1522 1522 1517 1515 1516 1517 1520 1522 1525 1527 1530 1532 1535 1537 1539 1541 1543 1545 1546 1547 1548 1549 1549 1550 1550 1551 1551 1551 1551 1550 1550 1550 1550 1550 1550 1550 1550 1550 1550 1549
1500 1508 1517 1526 1533 1546 1536 1541 1537 1524 1516 1510 1509 1511 1513 1516 1519 1522 1525 1527 1530 1533 1535 1537 1539 1541 1543 1544 1545 1546 1547 1548 1548 1549 1549 1549 1549 1549 1549 1549 1549 1549 1549 1548 1548 1548 1548 1548 1547
1503 1521 1543 1547 1556 1552 1536 1537 1531 1510 1504 1503 1504 1507 1510 1513 1517 1520 1522 1524 1527 1529 1532 1535 1537 1539 1540 1542 1543 1545 1546 1546 1547 1547 1547 1547 1548 1548 1548 1548 1548 1548 1547 1547 1547 1547 1547 1546 1546
1507 1516 1541 1553 1557 1550 1537 1537 1519 1502 1499 1500 1502 1504 1508 1511 1514 1517 1519 1522 1524 1527 1530 1532 1534 1536 1539 1540 1542 1543 1544 1544 1545 1545 1546 1546 1546 1546 1547 1547 1547 1546 1546 1546 1546 1545 1545 1545 1544
1507 1516 1518 1538 1544 1548 1542 1530 1511 1500 1499 1499 1500 1502 1505 1508 1511 1514 1517 1519 1522 1525 1527 1529 1532 1534 1536 1538 1540 1541 1542 1543 1543 1544 1544 1544 1545 1545 1545 1545 1545 1545 1545 1545 1544 1544 1544 1543 1543
1499 1510 1525 1538 1552 1553 1540 1532 1523 1506 1501 1499 1500 1501 1503 1506 1509 1512 1514 1517 1520 1522 1525 1527 1530 1532 1534 1536 1538 1539 1540 1541 1542 1542 1542 1543 1543 1544 1544 1544 1544 1544 1544 1544 1543 1543 1542 1542 1541
1505 1512 1523 1536 1538 1551 1550 1535 1503 1500 1497 1497 1497 1498 1501 1503 1506 1510 1512 1515 1518 1520 1523 1525 1528 1530 1532 1534 1536 1538 1539 1540 1540 1541 1541 1542 1542 1543 1543 1543 1543 1543 1543 1543 1543 1542 1541 1541 1540
1496 1505 1517 1529 1537 1542 1543 1530 1493 1492 1492 1493 1494 1497 1499 1502 1505 1508 1510 1513 1516 1518 1521 1523 1526 1528 1530 1533 1535 1536 1538 1538 1539 1539 1540 1540 1541 1542 1542 1543 1543 1543 1543 1542 1542 1541 1541 1540 1540